Location: Piolenc
(44.1794°N, 4.7641°E)
Time: 00:25:43
(UTC+00:00)

USA 305 - Pass Details

Date: 27 January 2021
Orbit: 565 x 578 km, 54.0° (Epoch: 26 February)

Event Time Altitude Azimuth Distance (km) Brightness Sun altitude
Exits shadow 06:26:33 - 284° (WNW) 1,963 4.9 -7.0°
Reaches altitude 10° 06:26:51 10° 286° (WNW) 1,860 4.8 -7.0°
Maximum altitude 06:30:27 27° 345° (NNW) 1,118 4.1 -6.4°
Drops below altitude 10° 06:34:04 10° 43° (NE) 1,864 5.8 -5.8°
Sets 06:36:36 0° 56° (NE) 2,763 7.0 -5.3°
